Location: ????????
(41.2031°N, 22.5756°E)
Time: 14:49:28
(UTC+00:00)

CZ-4 R/B - Pass Details

Date: 01 December 2020
Orbit: 532 x 597 km, 97.7° (Epoch: 20 January)

Event Time Altitude Azimuth Distance (km) Brightness Sun altitude
Rises 17:32:53 0° 184° (S) 2,703 5.0 -27.9°
Reaches altitude 10° 17:35:04 10° 192° (SSW) 1,824 4.1 -28.3°
Enters shadow 17:35:11 11° 192° (SSW) 1,780 4.1 -28.3°
Exits shadow 17:41:10 20° 321° (NW) 1,345 3.6 -29.4°
Drops below altitude 10° 17:42:37 10° 332° (NNW) 1,875 4.3 -29.7°
Sets 17:44:54 0° 340° (NNW) 2,790 5.1 -30.1°
